1501124400.37,14565,17.25,73158.8,-0.33,-13.61,-13.29,0,*6F
1501124401.58,14566,17.25,73156.5,-0.33,-13.55,-13.19,0,*68
1501124402.82,14567,17.25,73154.8,-0.31,-13.51,-13.23,0,*66
1501124404.03,14568,17.25,73156.8,-0.33,-13.55,-13.19,0,*66
1501124405.28,14569,17.25,73154.8,-0.31,-13.37,-13.15,0,*6D
1501124406.49,14570,17.25,73160.5,-0.33,-13.55,-13.19,0,*6F
1501124407.71,14571,17.25,73156.3,-0.31,-13.43,-13.15,0,*67
1501124408.91,14572,17.25,73156.5,-0.33,-13.55,-13.15,0,*61
1501124410.12,14573,17.25,73154.8,-0.33,-13.55,-13.19,0,*6C
1501124411.35,14574,17.25,73158.8,-0.33,-13.55,-13.33,0,*63
1501124412.58,14575,17.25,73158.8,-0.31,-13.43,-13.11,0,*67
1501124413.78,14576,17.25,73158.3,-0.33,-13.43,-13.11,0,*66
1501124414.99,14577,17.25,73156.5,-0.33,-13.51,-13.15,0,*60
1501124416.19,14578,17.25,73154.3,-0.33,-13.47,-13.15,0,*68
1501124417.43,14579,17.25,73158.0,-0.31,-13.65,-13.29,0,*64
1501124418.66,14580,17.25,73154.3,-0.33,-13.69,-13.33,0,*67
1501124419.92,14581,17.25,73158.8,-0.33,-13.61,-13.33,0,*6E
1501124421.17,14582,17.25,73158.8,-0.31,-13.65,-13.29,0,*60
1501124422.39,14583,17.25,73158.0,-0.31,-13.65,-13.23,0,*6B
1501124423.65,14584,17.25,73156.5,-0.33,-13.61,-13.29,0,*60
1501124424.89,14585,17.25,73160.8,-0.31,-13.65,-13.29,0,*67
1501124426.12,14586,17.25,73156.3,-0.31,-13.55,-13.15,0,*68
1501124427.37,14587,17.25,73156.5,-0.31,-13.29,-13.11,0,*66
1501124428.58,14588,17.25,73156.5,-0.33,-13.51,-13.11,0,*64
1501124429.83,14589,17.25,73160.3,-0.33,-13.61,-13.29,0,*6D
1501124431.06,14590,17.25,73156.0,-0.33,-13.69,-13.29,0,*6D
1501124432.29,14591,17.25,73156.0,-0.31,-13.51,-13.23,0,*6F
1501124433.54,14592,17.25,73156.5,-0.31,-13.55,-13.29,0,*62
1501124434.79,14593,17.25,73156.8,-0.31,-13.65,-13.37,0,*6F
1501124435.99,14594,17.25,73156.3,-0.33,-13.69,-13.47,0,*61
1501124437.24,14595,17.25,73156.0,-0.31,-13.55,-13.29,0,*65
1501124438.49,14596,17.25,73156.0,-0.33,-13.61,-13.33,0,*68
1501124439.74,14597,17.25,73156.3,-0.31,-13.55,-13.37,0,*68
1501124440.97,14598,17.25,73152.8,-0.31,-13.55,-13.43,0,*64
1501124442.21,14599,17.25,73158.3,-0.31,-13.65,-13.29,0,*6A
1501124443.46,14600,17.25,73156.8,-0.31,-13.65,-13.37,0,*66
1501124444.71,14601,17.25,73158.0,-0.31,-13.65,-13.37,0,*67
1501124445.94,14602,17.25,73156.5,-0.33,-13.61,-13.43,0,*61
1501124447.19,14603,17.25,73156.0,-0.31,-13.55,-13.29,0,*69
1501124448.41,14604,17.25,73154.3,-0.33,-13.69,-13.33,0,*68
1501124449.67,14605,17.25,73158.8,-0.31,-13.55,-13.29,0,*6F
1501124450.9,14606,17.25,73154.5,-0.31,-13.51,-13.11,0,*63
1501124452.13,14607,17.25,73154.5,-0.29,-13.61,-13.11,0,*68
1501124453.36,14608,17.25,73158.3,-0.31,-13.51,-13.15,0,*69
1501124454.59,14609,17.25,73158.0,-0.31,-13.51,-13.15,0,*68
1501124455.83,14610,17.25,73154.8,-0.31,-13.65,-13.29,0,*68
1501124457.06,14611,17.25,73156.5,-0.31,-13.65,-13.23,0,*63
1501124458.29,14612,17.25,73156.3,-0.33,-13.69,-13.33,0,*6F
1501124459.52,14613,17.25,73154.3,-0.31,-13.55,-13.23,0,*62
1501124460.77,14614,17.25,73154.5,-0.31,-13.65,-13.37,0,*63
1501124461.99,14615,17.25,73158.3,-0.31,-13.55,-13.23,0,*64
1501124463.22,14616,17.25,73158.5,-0.31,-13.55,-13.15,0,*62
1501124464.47,14617,17.25,73158.3,-0.31,-13.55,-13.29,0,*6C
1501124465.69,14618,17.25,73158.0,-0.31,-13.55,-13.15,0,*6C
1501124466.94,14619,17.25,73154.0,-0.31,-13.55,-13.29,0,*62
1501124468.16,14620,17.25,73156.5,-0.29,-13.51,-13.19,0,*66
1501124469.37,14621,17.25,73160.0,-0.29,-13.51,-13.23,0,*6E
1501124470.6,14622,17.25,73156.5,-0.29,-13.61,-13.19,0,*67
1501124471.83,14623,17.25,73156.3,-0.31,-13.65,-13.23,0,*62
1501124473.05,14624,17.25,73158.0,-0.31,-13.65,-13.23,0,*65
1501124474.28,14625,17.25,73154.8,-0.31,-13.55,-13.23,0,*67
1501124475.51,14626,17.25,73156.8,-0.31,-13.55,-13.23,0,*64
1501124476.73,14627,17.25,73158.0,-0.31,-13.55,-13.15,0,*60
1501124477.93,14628,17.25,73154.8,-0.29,-13.47,-13.07,0,*66
1501124479.16,14629,17.25,73156.8,-0.29,-13.37,-13.11,0,*67
1501124480.39,14630,17.25,73156.0,-0.29,-13.37,-13.07,0,*68
1501124481.61,14631,17.25,73156.8,-0.29,-13.61,-13.11,0,*6D
1501124482.85,14632,17.25,73156.8,-0.29,-13.61,-13.19,0,*66
1501124484.09,14633,17.19,73154.3,-0.27,-13.51,-13.19,0,*6A
1501124485.32,14634,17.19,73154.0,-0.31,-13.51,-13.11,0,*62
1501124486.56,14635,17.25,73154.8,-0.27,-13.51,-13.19,0,*6C
1501124487.76,14636,17.25,73156.3,-0.29,-13.47,-13.11,0,*6E
1501124488.99,14637,17.25,73156.5,-0.27,-13.51,-13.19,0,*6E
1501124490.22,14638,17.25,73156.0,-0.29,-13.37,-13.11,0,*67
1501124491.47,14639,17.25,73154.0,-0.27,-13.37,-13.11,0,*68
1501124492.69,14640,17.25,73154.8,-0.27,-13.47,-13.11,0,*61
1501124493.92,14641,17.25,73156.0,-0.29,-13.61,-13.11,0,*6A
1501124495.13,14642,17.25,73158.3,-0.29,-13.51,-13.23,0,*6B
1501124496.37,14643,17.25,73156.3,-0.27,-13.51,-13.19,0,*6D
1501124497.6,14644,17.25,73152.0,-0.27,-13.51,-13.19,0,*6A
1501124498.83,14645,17.25,73156.0,-0.27,-13.51,-13.23,0,*62
1501124500.07,14646,17.19,73154.8,-0.29,-13.61,-13.19,0,*65
1501124501.35,14647,17.19,73154.5,-0.27,-13.61,-13.33,0,*62
1501124502.58,14648,17.25,73154.3,-0.29,-13.61,-13.23,0,*62
1501124503.83,14649,17.25,73158.3,-0.29,-13.61,-13.33,0,*62
1501124505.06,14650,17.25,73156.5,-0.29,-13.65,-13.33,0,*6E
1501124506.31,14651,17.25,73158.8,-0.27,-13.65,-13.33,0,*61
1501124507.55,14652,17.25,73158.0,-0.27,-13.65,-13.37,0,*66
1501124508.8,14653,17.25,73158.3,-0.27,-13.73,-13.37,0,*60
1501124510.05,14654,17.25,73154.5,-0.27,-13.73,-13.37,0,*67
1501124511.27,14655,17.25,73156.5,-0.29,-13.65,-13.37,0,*6F
1501124512.49,14656,17.25,73154.3,-0.29,-13.65,-13.37,0,*6C
1501124513.72,14657,17.25,73156.8,-0.29,-13.65,-13.37,0,*6D
1501124514.95,14658,17.25,73156.3,-0.29,-13.73,-13.33,0,*61
1501124516.17,14659,17.25,73158.5,-0.29,-13.65,-13.37,0,*63
1501124517.4,14660,17.25,73158.3,-0.29,-13.73,-13.37,0,*6E
1501124518.65,14661,17.25,73156.5,-0.27,-13.83,-13.47,0,*69
1501124519.87,14662,17.25,73156.8,-0.29,-13.73,-13.37,0,*6C
1501124521.13,14663,17.25,73156.5,-0.27,-13.83,-13.51,0,*6C
1501124522.35,14664,17.25,73156.5,-0.29,-13.79,-13.47,0,*67
1501124523.6,14665,17.19,73154.5,-0.27,-13.83,-13.51,0,*6A
1501124524.83,14666,17.25,73158.0,-0.29,-13.79,-13.51,0,*62
1501124526.03,14667,17.25,73156.3,-0.29,-13.73,-13.47,0,*6E
1501124527.25,14668,17.25,73156.8,-0.29,-13.83,-13.47,0,*6E
1501124528.49,14669,17.25,73156.8,-0.29,-13.83,-13.51,0,*68
1501124529.74,14670,17.25,73156.8,-0.29,-13.79,-13.61,0,*66
1501124531.0,14671,17.25,73156.8,-0.29,-13.83,-13.61,0,*62
1501124532.23,14672,17.25,73158.3,-0.29,-13.93,-13.61,0,*60
1501124533.48,14673,17.25,73156.5,-0.29,-13.79,-13.61,0,*65
1501124534.71,14674,17.25,73152.0,-0.29,-13.79,-13.51,0,*61
1501124535.94,14675,17.19,73154.3,-0.29,-13.83,-13.47,0,*62
1501124537.16,14676,17.25,73156.5,-0.29,-13.79,-13.47,0,*64
1501124538.38,14677,17.25,73156.0,-0.29,-13.79,-13.51,0,*62
1501124539.64,14678,17.25,73158.3,-0.29,-13.83,-13.61,0,*6B
1501124540.87,14679,17.25,73156.0,-0.29,-13.93,-13.61,0,*6B
1501124542.07,14680,17.25,73158.0,-0.29,-13.93,-13.51,0,*6E
1501124543.31,14681,17.19,73156.0,-0.29,-13.83,-13.51,0,*6E
1501124544.54,14682,17.25,73156.0,-0.29,-13.83,-13.65,0,*6A
1501124545.77,14683,17.25,73156.5,-0.29,-13.83,-13.65,0,*6B
1501124547.03,14684,17.25,73156.5,-0.29,-13.97,-13.61,0,*6D
1501124548.29,14685,17.25,73158.3,-0.29,-13.97,-13.61,0,*6C
1501124549.54,14686,17.25,73156.5,-0.31,-14.01,-13.69,0,*66
1501124550.8,14687,17.25,73160.8,-0.31,-13.97,-13.65,0,*63
1501124552.03,14688,17.25,73156.5,-0.29,-13.93,-13.61,0,*65
1501124553.28,14689,17.25,73156.8,-0.31,-14.01,-13.69,0,*69
1501124554.51,14690,17.25,73158.5,-0.29,-14.05,-13.73,0,*67
1501124555.72,14691,17.25,73156.0,-0.33,-14.15,-13.73,0,*6C
1501124556.97,14692,17.25,73156.0,-0.31,-14.11,-13.79,0,*63
1501124558.23,14693,17.19,73154.3,-0.31,-14.15,-13.83,0,*63
1501124559.48,14694,17.25,73156.5,-0.31,-14.11,-13.83,0,*60
1501124560.73,14695,17.25,73156.8,-0.31,-14.11,-13.79,0,*64
1501124561.98,14696,17.25,73158.5,-0.33,-14.05,-13.83,0,*65
1501124563.22,14697,17.25,73156.8,-0.33,-14.15,-13.83,0,*65
1501124564.47,14698,17.19,73154.8,-0.31,-14.15,-13.83,0,*68
1501124565.73,14699,17.25,73158.0,-0.33,-14.05,-13.83,0,*6A
1501124566.98,14700,17.25,73154.3,-0.31,-13.87,-13.65,0,*6C
1501124568.24,14701,17.25,73154.8,-0.31,-13.83,-13.55,0,*6A
1501124569.49,14702,17.25,73156.0,-0.31,-13.97,-13.69,0,*63
1501124570.72,14703,17.25,73154.8,-0.33,-13.87,-13.55,0,*6E
1501124571.96,14704,17.25,73156.0,-0.31,-13.87,-13.69,0,*64
1501124573.22,14705,17.25,73152.5,-0.31,-13.97,-13.65,0,*68
1501124574.47,14706,17.19,73150.5,-0.31,-14.01,-13.69,0,*6F
1501124575.75,14707,17.25,73154.8,-0.31,-14.01,-13.79,0,*6F
1501124577.01,14708,17.25,73152.0,-0.33,-14.01,-13.61,0,*6B
1501124578.25,14709,17.25,73152.3,-0.31,-14.11,-13.79,0,*60
1501124579.51,14710,17.25,73154.3,-0.31,-14.15,-13.79,0,*6C
1501124580.76,14711,17.25,73152.8,-0.31,-14.01,-13.69,0,*69
1501124582.01,14712,17.25,73152.5,-0.31,-13.97,-13.69,0,*62
1501124583.27,14713,17.25,73154.3,-0.31,-14.01,-13.55,0,*64
1501124584.52,14714,17.25,73158.3,-0.31,-13.87,-13.65,0,*69
1501124585.77,14715,17.25,73154.5,-0.31,-14.01,-13.69,0,*6D
1501124587.03,14716,17.25,73156.8,-0.33,-14.01,-13.83,0,*68
1501124588.28,14717,17.25,73156.5,-0.31,-13.97,-13.69,0,*67
1501124589.51,14718,17.25,73152.8,-0.33,-14.01,-13.69,0,*62
1501124590.74,14719,17.25,73158.8,-0.33,-14.05,-13.73,0,*6C
1501124592.02,14720,17.25,73158.0,-0.31,-14.01,-13.83,0,*6F
1501124593.28,14721,17.25,73152.0,-0.31,-14.15,-13.83,0,*6B
1501124594.55,14722,17.25,73156.0,-0.31,-13.97,-13.79,0,*60
1501124595.8,14723,17.25,73152.0,-0.31,-13.87,-13.65,0,*6D
1501124597.05,14724,17.25,73156.0,-0.31,-13.87,-13.65,0,*6A
1501124598.31,14725,17.25,73152.0,-0.31,-13.97,-13.65,0,*6A
1501124599.56,14726,17.25,73156.0,-0.31,-13.87,-13.55,0,*6B
1501124600.81,14727,17.25,73154.3,-0.31,-13.87,-13.65,0,*69
1501124602.06,14728,17.25,73152.8,-0.31,-13.97,-13.69,0,*6B
1501124603.32,14729,17.25,73154.8,-0.31,-13.97,-13.55,0,*65
1501124604.57,14730,17.25,73154.3,-0.31,-14.01,-13.69,0,*6A
1501124605.82,14731,17.25,73156.8,-0.31,-13.97,-13.65,0,*6F
1501124607.07,14732,17.25,73156.5,-0.31,-13.87,-13.65,0,*6D
1501124608.32,14733,17.25,73156.5,-0.31,-13.87,-13.65,0,*6C
1501124609.58,14734,17.19,73154.3,-0.31,-14.01,-13.65,0,*62
1501124610.83,14735,17.25,73156.0,-0.31,-14.01,-13.69,0,*6F
1501124612.09,14736,17.25,73158.3,-0.31,-13.97,-13.65,0,*68
1501124613.34,14737,17.25,73154.8,-0.31,-13.83,-13.65,0,*6C
1501124614.59,14738,17.25,73158.3,-0.31,-13.87,-13.55,0,*64
1501124615.82,14739,17.25,73158.5,-0.29,-13.73,-13.37,0,*63
1501124617.05,14740,17.25,73156.3,-0.29,-13.79,-13.51,0,*67
1501124618.27,14741,17.25,73158.5,-0.29,-13.79,-13.47,0,*61
1501124619.5,14742,17.25,73156.8,-0.29,-13.83,-13.51,0,*60
1501124620.73,14743,17.25,73156.0,-0.29,-13.83,-13.51,0,*61
1501124621.99,14744,17.25,73156.8,-0.31,-14.01,-13.65,0,*65
1501124623.25,14745,17.25,73158.0,-0.31,-13.83,-13.55,0,*6A
1501124624.51,14746,17.25,73156.3,-0.29,-13.83,-13.61,0,*67
1501124625.76,14747,17.25,73156.5,-0.31,-13.97,-13.69,0,*62
1501124627.01,14748,17.25,73156.5,-0.31,-13.97,-13.69,0,*6D
1501124628.24,14749,17.25,73156.3,-0.29,-13.79,-13.51,0,*6E
1501124629.49,14750,17.25,73154.8,-0.31,-13.87,-13.65,0,*69
1501124630.74,14751,17.25,73158.0,-0.31,-13.87,-13.65,0,*68
1501124631.98,14752,17.25,73154.8,-0.31,-13.87,-13.69,0,*67
1501124633.24,14753,17.25,73154.0,-0.31,-14.01,-13.69,0,*6F
1501124634.48,14754,17.19,73152.5,-0.31,-14.11,-13.79,0,*68
1501124635.74,14755,17.25,73154.8,-0.31,-13.83,-13.51,0,*6F
1501124637.0,14756,17.25,73154.0,-0.31,-13.83,-13.51,0,*6C
1501124638.23,14757,17.19,73154.3,-0.29,-13.73,-13.37,0,*6B
1501124639.43,14758,17.25,73154.5,-0.29,-13.73,-13.23,0,*61
1501124640.66,14759,17.25,73154.3,-0.29,-13.65,-13.37,0,*62
1501124641.85,14760,17.25,73156.0,-0.29,-13.73,-13.47,0,*68
1501124643.1,14761,17.25,73156.0,-0.27,-13.73,-13.37,0,*60
1501124644.35,14762,17.25,73158.3,-0.27,-13.79,-13.51,0,*69
1501124645.57,14763,17.25,73154.0,-0.29,-13.79,-13.47,0,*61
1501124646.79,14764,17.25,73154.3,-0.29,-13.73,-13.37,0,*6B
1501124648.04,14765,17.25,73158.5,-0.27,-13.79,-13.51,0,*6E
1501124649.29,14766,17.25,73158.0,-0.27,-13.65,-13.37,0,*60
1501124650.53,14767,17.19,73154.0,-0.27,-13.65,-13.33,0,*65
1501124651.78,14768,17.25,73158.3,-0.27,-13.65,-13.37,0,*6E
1501124653.03,14769,17.25,73154.0,-0.27,-13.73,-13.33,0,*6C
1501124654.28,14770,17.25,73156.0,-0.27,-13.61,-13.19,0,*6F
1501124655.52,14771,17.19,73154.5,-0.27,-13.51,-13.23,0,*64
1501124656.79,14772,17.25,73156.8,-0.27,-13.79,-13.37,0,*68
1501124658.01,14773,17.25,73154.5,-0.27,-13.65,-13.23,0,*61
1501124659.26,14774,17.25,73152.5,-0.27,-13.73,-13.37,0,*64
1501124660.5,14775,17.25,73154.8,-0.27,-13.65,-13.33,0,*66
1501124661.78,14776,17.25,73152.8,-0.27,-13.79,-13.37,0,*6C
1501124662.99,14777,17.19,73154.5,-0.27,-13.73,-13.47,0,*60
1501124664.25,14778,17.25,73156.8,-0.27,-13.83,-13.51,0,*67
1501124665.47,14779,17.19,73154.8,-0.27,-13.93,-13.51,0,*67
1501124666.67,14780,17.19,73152.3,-0.25,-13.73,-13.43,0,*6E
1501124667.92,14781,17.19,73154.0,-0.25,-13.61,-13.29,0,*60
1501124669.14,14782,17.25,73154.8,-0.25,-13.79,-13.43,0,*66
1501124670.39,14783,17.25,73154.3,-0.25,-13.61,-13.29,0,*62
1501124671.63,14784,17.25,73154.3,-0.25,-13.61,-13.19,0,*66
1501124672.83,14785,17.25,73156.5,-0.25,-13.55,-13.07,0,*6F
1501124674.04,14786,17.25,73154.8,-0.25,-13.55,-13.19,0,*63
1501124675.27,14787,17.25,73154.0,-0.25,-13.55,-13.29,0,*61
1501124676.48,14788,17.25,73156.8,-0.25,-13.55,-13.19,0,*6D
1501124677.7,14789,17.25,73156.8,-0.23,-13.55,-13.07,0,*65
1501124678.94,14790,17.25,73156.3,-0.23,-13.55,-13.29,0,*61
1501124680.2,14791,17.25,73156.3,-0.23,-13.69,-13.33,0,*64
1501124681.44,14792,17.25,73156.8,-0.23,-13.69,-13.33,0,*67
1501124682.64,14793,17.25,73154.8,-0.25,-13.73,-13.43,0,*6C
1501124683.86,14794,17.25,73158.3,-0.25,-13.79,-13.47,0,*65
1501124685.11,14795,17.25,73152.0,-0.23,-13.69,-13.33,0,*60
1501124686.33,14796,17.25,73152.0,-0.25,-13.79,-13.47,0,*67
1501124687.57,14797,17.25,73154.3,-0.23,-13.79,-13.47,0,*60
1501124688.82,14798,17.25,73152.0,-0.23,-13.79,-13.55,0,*6C
1501124690.06,14799,17.19,73154.0,-0.23,-13.79,-13.47,0,*6E
1501124691.28,14800,17.25,73152.8,-0.23,-13.73,-13.43,0,*6F
1501124692.52,14801,17.25,73156.8,-0.23,-13.79,-13.43,0,*64
1501124693.8,14802,17.25,73158.3,-0.23,-13.61,-13.33,0,*69
1501124695.07,14803,17.25,73154.5,-0.23,-13.61,-13.29,0,*63
1501124696.27,14804,17.25,73152.3,-0.25,-13.73,-13.43,0,*6D
1501124697.52,14805,17.25,73156.0,-0.23,-13.73,-13.33,0,*6D
1501124698.79,14806,17.25,73154.0,-0.23,-13.61,-13.29,0,*66
1501124700.03,14807,17.25,73156.5,-0.23,-13.79,-13.43,0,*62
1501124701.3,14808,17.25,73154.8,-0.23,-13.61,-13.29,0,*68
1501124702.53,14809,17.25,73156.0,-0.21,-13.55,-13.29,0,*6C
1501124703.75,14810,17.25,73156.5,-0.21,-13.83,-13.43,0,*63
1501124704.97,14811,17.19,73152.5,-0.21,-13.83,-13.43,0,*62
1501124706.23,14812,17.25,73154.8,-0.17,-13.87,-13.55,0,*67
1501124707.45,14813,17.19,73152.3,-0.21,-13.83,-13.43,0,*60
1501124708.71,14814,17.25,73158.5,-0.17,-13.69,-13.37,0,*65
1501124709.93,14815,17.25,73152.5,-0.21,-13.87,-13.55,0,*65
1501124711.19,14816,17.25,73156.0,-0.17,-14.01,-13.65,0,*69
1501124712.41,14817,17.25,73156.0,-0.21,-13.87,-13.51,0,*63
1501124713.64,14818,17.25,73162.0,-0.21,-13.83,-13.51,0,*68
1501124714.9,14819,17.25,73156.8,-0.17,-13.87,-13.51,0,*68
1501124716.12,14820,17.25,73154.8,-0.21,-13.97,-13.65,0,*61
1501124717.38,14821,17.25,73154.0,-0.17,-13.97,-13.65,0,*65
1501124718.61,14822,17.19,73152.3,-0.21,-13.97,-13.51,0,*64
1501124719.87,14823,17.25,73154.3,-0.17,-13.73,-13.37,0,*6A
1501124721.13,14824,17.25,73156.8,-0.17,-13.83,-13.43,0,*61
1501124722.38,14825,17.25,73156.8,-0.17,-13.87,-13.65,0,*60
1501124723.61,14826,17.19,73152.5,-0.21,-13.83,-13.43,0,*66
1501124724.87,14827,17.25,73156.0,-0.17,-13.97,-13.65,0,*63
1501124726.13,14828,17.25,73156.5,-0.17,-13.97,-13.51,0,*6B
1501124727.39,14829,17.25,73156.0,-0.17,-14.01,-13.69,0,*69
1501124728.65,14830,17.25,73158.3,-0.17,-13.97,-13.51,0,*62
1501124729.91,14831,17.25,73158.8,-0.17,-13.83,-13.55,0,*62
1501124731.14,14832,17.25,73156.8,-0.21,-13.97,-13.65,0,*62
1501124732.37,14833,17.19,73156.3,-0.21,-14.01,-13.65,0,*6B
1501124733.6,14834,17.25,73160.5,-0.17,-14.11,-13.69,0,*64
1501124734.82,14835,17.25,73156.0,-0.21,-14.01,-13.69,0,*61
1501124736.08,14836,17.25,73156.5,-0.17,-14.01,-13.69,0,*67
1501124737.27,14837,17.25,73156.0,-0.21,-14.11,-13.69,0,*62
1501124738.47,14838,17.19,73152.0,-0.21,-14.15,-13.69,0,*69
1501124739.7,14839,17.25,73156.0,-0.21,-14.15,-13.83,0,*6C
1501124740.96,14840,17.19,73154.3,-0.17,-14.11,-13.83,0,*63
1501124742.15,14841,17.25,73158.3,-0.21,-14.11,-13.69,0,*63
1501124743.38,14842,17.25,73158.5,-0.21,-14.15,-13.83,0,*60
1501124744.61,14843,17.25,73156.5,-0.17,-14.11,-13.69,0,*64
1501124745.84,14844,17.25,73156.0,-0.21,-14.01,-13.65,0,*6B
1501124747.06,14845,17.25,73158.8,-0.21,-14.01,-13.69,0,*66
1501124748.29,14846,17.25,73156.0,-0.21,-13.97,-13.65,0,*61
1501124749.51,14847,17.19,73154.3,-0.21,-13.97,-13.69,0,*6C
1501124750.77,14848,17.25,73156.5,-0.17,-14.01,-13.65,0,*62
1501124752.0,14849,17.25,73156.0,-0.21,-14.01,-13.69,0,*6A
1501124753.22,14850,17.25,73158.5,-0.21,-14.01,-13.69,0,*62
1501124754.44,14851,17.25,73156.8,-0.21,-14.01,-13.69,0,*63
1501124755.7,14852,17.19,73152.3,-0.17,-13.97,-13.69,0,*6D
1501124756.92,14853,17.25,73158.3,-0.21,-14.11,-13.83,0,*64
1501124758.15,14854,17.25,73162.8,-0.17,-14.11,-13.69,0,*62
1501124759.41,14855,17.25,73158.3,-0.17,-14.11,-13.83,0,*67
1501124760.64,14856,17.19,73156.0,-0.21,-14.23,-13.97,0,*65
1501124761.87,14857,17.25,73156.8,-0.21,-14.23,-13.87,0,*65
1501124763.08,14858,17.25,73156.3,-0.21,-14.29,-13.83,0,*64
1501124764.31,14859,17.25,73158.0,-0.21,-14.23,-13.83,0,*6F
1501124765.57,14860,17.25,73158.3,-0.17,-14.23,-13.87,0,*64
1501124766.83,14861,17.25,73156.5,-0.17,-14.23,-13.87,0,*65
1501124768.05,14862,17.25,73158.5,-0.21,-14.23,-13.87,0,*63
1501124769.31,14863,17.19,73154.5,-0.17,-14.15,-13.83,0,*66
1501124770.54,14864,17.25,73158.0,-0.21,-14.15,-13.83,0,*64
1501124771.8,14865,17.25,73156.0,-0.17,-14.23,-13.83,0,*65
1501124773.02,14866,17.25,73156.8,-0.21,-14.23,-13.87,0,*67
1501124774.24,14867,17.25,73158.3,-0.21,-14.29,-13.87,0,*6C
1501124775.5,14868,17.25,73158.3,-0.17,-14.29,-14.01,0,*6F
1501124776.72,14869,17.25,73158.8,-0.21,-14.23,-13.87,0,*68
1501124777.93,14870,17.19,73154.8,-0.25,-14.19,-13.93,0,*68
1501124779.17,14871,17.19,73152.0,-0.23,-14.29,-13.87,0,*69
1501124780.39,14872,17.25,73158.8,-0.21,-14.29,-13.83,0,*6C
1501124781.63,14873,17.25,73156.8,-0.23,-14.29,-13.87,0,*6B
1501124782.85,14874,17.25,73156.0,-0.21,-14.23,-13.87,0,*64
1501124784.08,14875,17.25,73158.8,-0.21,-14.23,-13.83,0,*61
1501124785.31,14876,17.25,73158.5,-0.21,-14.15,-13.83,0,*67
1501124786.53,14877,17.25,73158.5,-0.21,-14.23,-13.87,0,*67
1501124787.75,14878,17.25,73158.0,-0.23,-14.33,-13.93,0,*6E
1501124789.0,14879,17.25,73156.5,-0.23,-14.19,-13.87,0,*62
1501124790.25,14880,17.25,73158.3,-0.23,-14.19,-13.87,0,*64
1501124791.49,14881,17.25,73158.5,-0.23,-14.29,-13.87,0,*66
1501124792.73,14882,17.19,73154.5,-0.23,-14.29,-13.87,0,*65
1501124793.98,14883,17.25,73156.0,-0.23,-14.33,-14.01,0,*66
1501124795.23,14884,17.25,73156.5,-0.23,-14.33,-14.01,0,*61
1501124796.48,14885,17.25,73154.8,-0.23,-14.33,-14.05,0,*64
1501124797.73,14886,17.25,73156.3,-0.23,-14.33,-14.05,0,*67
1501124798.95,14887,17.25,73154.8,-0.23,-14.29,-13.93,0,*65
1501124800.19,14888,17.25,73156.8,-0.23,-14.29,-13.87,0,*6F
1501124801.43,14889,17.25,73156.5,-0.23,-14.33,-13.87,0,*65
1501124802.65,14890,17.19,73154.5,-0.23,-14.29,-13.93,0,*63
1501124803.87,14891,17.25,73154.0,-0.21,-14.29,-13.87,0,*65
1501124805.09,14892,17.25,73152.0,-0.21,-14.29,-14.01,0,*6F
1501124806.32,14893,17.25,73158.0,-0.21,-14.37,-14.01,0,*61
1501124807.58,14894,17.25,73156.0,-0.25,-14.43,-14.05,0,*65
1501124808.83,14895,17.25,73152.8,-0.23,-14.33,-14.01,0,*61
1501124810.07,14896,17.25,73156.3,-0.23,-14.29,-13.87,0,*60
1501124811.3,14897,17.25,73156.0,-0.25,-14.19,-13.87,0,*64
1501124812.53,14898,17.25,73156.0,-0.23,-14.15,-13.73,0,*6A
1501124813.75,14899,17.19,73152.5,-0.23,-14.19,-13.73,0,*67
1501124815.01,14900,17.25,73156.3,-0.23,-14.05,-13.73,0,*6B
1501124816.26,14901,17.25,73158.3,-0.23,-14.01,-13.69,0,*65
1501124817.48,14902,17.25,73154.3,-0.23,-14.15,-13.73,0,*68
1501124818.71,14903,17.19,73152.5,-0.23,-14.15,-13.73,0,*69
1501124819.94,14904,17.25,73154.0,-0.23,-14.19,-13.73,0,*62
1501124821.19,14905,17.25,73154.3,-0.23,-14.15,-13.87,0,*64
1501124822.42,14906,17.25,73154.8,-0.21,-14.15,-13.83,0,*61
1501124823.65,14907,17.25,73156.0,-0.21,-14.15,-13.83,0,*60
1501124824.87,14908,17.19,73154.8,-0.21,-14.15,-13.87,0,*6B
1501124826.09,14909,17.25,73156.3,-0.21,-14.29,-13.83,0,*61
1501124827.31,14910,17.25,73154.5,-0.21,-14.11,-13.83,0,*62
1501124828.57,14911,17.25,73158.3,-0.17,-14.23,-13.83,0,*67
1501124829.79,14912,17.25,73152.8,-0.23,-14.29,-13.93,0,*68
1501124831.01,14913,17.25,73152.5,-0.21,-14.29,-13.87,0,*6E
1501124832.23,14914,17.19,73152.5,-0.21,-14.29,-13.87,0,*69
1501124833.44,14915,17.25,73156.0,-0.21,-14.29,-13.87,0,*68
1501124834.7,14916,17.25,73154.5,-0.17,-14.29,-13.97,0,*6F
1501124835.93,14917,17.25,73158.0,-0.21,-14.29,-14.01,0,*63
1501124837.15,14918,17.25,73156.5,-0.21,-14.29,-13.97,0,*64
1501124838.38,14919,17.19,73152.5,-0.21,-14.29,-13.97,0,*65
1501124839.61,14920,17.19,73152.8,-0.21,-14.29,-13.97,0,*6F
1501124840.86,14921,17.19,73154.3,-0.17,-14.29,-13.83,0,*6E
1501124842.08,14922,17.19,73154.0,-0.21,-14.29,-13.97,0,*6D
1501124843.3,14923,17.25,73154.8,-0.21,-14.29,-13.87,0,*6D
1501124844.53,14924,17.25,73154.0,-0.21,-14.23,-13.87,0,*60
1501124845.74,14925,17.19,73152.8,-0.21,-14.29,-13.87,0,*6B
1501124846.97,14926,17.25,73152.5,-0.21,-14.29,-13.97,0,*69
1501124848.23,14927,17.25,73156.5,-0.17,-14.23,-13.87,0,*66
1501124849.45,14928,17.25,73156.0,-0.21,-14.29,-13.87,0,*66
1501124850.67,14929,17.25,73152.8,-0.21,-14.23,-13.83,0,*69
1501124851.89,14930,17.19,73154.3,-0.21,-14.23,-13.83,0,*61
1501124853.11,14931,17.25,73152.3,-0.21,-14.29,-13.87,0,*6E
1501124854.34,14932,17.25,73158.5,-0.21,-14.23,-13.83,0,*63
1501124855.56,14933,17.25,73154.8,-0.21,-14.29,-13.97,0,*6D
1501124856.79,14934,17.19,73152.5,-0.21,-14.29,-14.01,0,*62
1501124858.01,14935,17.19,73154.0,-0.21,-14.29,-13.97,0,*6B
1501124859.24,14936,17.25,73156.0,-0.21,-14.29,-13.97,0,*68
1501124860.46,14937,17.19,73154.3,-0.21,-14.29,-13.87,0,*68
1501124861.68,14938,17.19,73154.0,-0.21,-14.29,-13.97,0,*66
1501124862.91,14939,17.19,73154.3,-0.21,-14.37,-14.01,0,*60
1501124864.11,14940,17.19,73152.5,-0.21,-14.37,-14.15,0,*6B
1501124865.31,14941,17.19,73152.5,-0.21,-14.37,-14.11,0,*6E
1501124866.53,14942,17.25,73154.3,-0.21,-14.37,-14.01,0,*6C
1501124867.76,14943,17.19,73152.5,-0.21,-14.37,-13.97,0,*65
1501124868.99,14944,17.19,73152.5,-0.21,-14.29,-14.01,0,*65
1501124870.22,14945,17.19,73152.5,-0.21,-14.37,-13.97,0,*63
1501124871.44,14946,17.19,73154.8,-0.21,-14.37,-14.01,0,*68
1501124872.67,14947,17.25,73156.0,-0.21,-14.43,-14.15,0,*6F
1501124873.92,14948,17.19,73152.5,-0.23,-14.43,-14.15,0,*62
1501124875.19,14949,17.19,73152.5,-0.23,-14.43,-14.05,0,*62
1501124876.47,14950,17.25,73154.8,-0.23,-14.43,-14.05,0,*6A
1501124877.71,14951,17.25,73154.0,-0.23,-14.29,-13.87,0,*6A
1501124878.96,14952,17.25,73152.0,-0.23,-14.19,-13.87,0,*6A
1501124880.18,14953,17.19,73154.0,-0.23,-14.29,-13.93,0,*6D
1501124881.43,14954,17.19,73150.0,-0.23,-14.33,-14.01,0,*6D
1501124882.68,14955,17.25,73154.0,-0.23,-14.33,-14.01,0,*6C
1501124883.93,14956,17.19,73152.0,-0.23,-14.33,-14.05,0,*6B
1501124885.18,14957,17.19,73152.3,-0.23,-14.33,-14.01,0,*6E
1501124886.45,14958,17.19,73152.3,-0.23,-14.43,-14.05,0,*62
1501124887.72,14959,17.25,73152.3,-0.23,-14.43,-14.05,0,*63
1501124888.98,14960,17.19,73152.3,-0.25,-14.43,-14.01,0,*6B
1501124890.26,14961,17.25,73154.8,-0.23,-14.43,-14.01,0,*6C
1501124891.48,14962,17.25,73152.5,-0.23,-14.29,-13.93,0,*6F
1501124892.75,14963,17.25,73156.5,-0.23,-14.43,-14.01,0,*6E
1501124893.97,14964,17.19,73152.5,-0.23,-14.29,-13.93,0,*69